sat.trackr.live / text

‹ back to catalog

GAOFEN-11 01

NORAD 43585 · 2018-063A

PAYLOAD ACTIVE UNKNOWN

§ Identity

Operator
Country
PRC
Launch date
2018-07-31
Launch site
TAISC
Launch vehicle
Mass (kg)
RCS (m²)

Purposes: earth_obs

External: N2YO · Heavens-Above · Gunter

§ Orbital elements

Epoch: 2026-09-20T04:30:24.786432Z

Period
92.43 min
Inclination
97.1190°
Eccentricity
0.0003147
Mean motion
15.57858464 rev/d
Perigee alt
391.7 km
Apogee alt
396.0 km
Semi-major
6,772.0 km
B*
1.5483e-4
RAAN
329.9156°
Arg perigee
7.3552°
Mean anomaly
352.7750°
Rev number
45,512

§ Raw data

GAOFEN-11 011 43585U 18063A   26263.18778688  .00011437  00000+0  15483-3 0  99942 43585  97.1190 329.9156 0003147   7.3552 352.7750 15.57858464455125

JSON: /api/v1/satellites/43585 · /tle

For live sub-satellite position, see the globe view (requires WebGL).

§ Visibility from observer

Set your observer location to see the next 7 days of passes ≥ 10°. The values pass through the URL so the page stays shareable.

No JS? Fill the form by hand. The geolocation button needs JavaScript.